Погода в Лескове

Россия / Воронежская область     50°22′28″N   40°43′14″E
темп.,
°C
ветер,
м/с
пор.,
м/с
влажн.,
%
обл.,
%
осадки,
мм/ч
давл.,
гПа
погр.,
м
25 февраля, чт
чт2500:00−13ююз468498 0.0 1038329
03:00−13ююз588999 0.1 1036376
06:00−12ююз5992100 0.3 1034416
09:00−11ююз61092100 0.4 1032409
12:00−8юз71190100 0.1 1030488
15:00−5юз81391100 0.3 1026470
18:00−3зюз81494100 0.4 1022444
21:00−1зюз71395100 1.2 1021431
26 февраля, пт
пт2600:00+1з61298100 0.5 1019313
03:00+2з61298100 1.3 1019325
06:00+2з51099100 0.0 1019242
09:00+2з51099100 0.1 1018270
12:00+2з51199100 0.0 1018295
15:00+3з61198100 0.0 1016329
18:00+2з71397100 0.0 1014445
21:00+3з61497100 0.2 1014382
27 февраля, сб
сб2700:00+2з61396100 0.1 1012412
03:00+2з61295100 0.1 1011433
06:00+1з51195100 0.0 1010426
09:00+1з61196100 0.0 1009444
12:00+2з61197100 0.1 1009562
15:00+3зсз61085100 0.1 1008899
18:00+1зсз6109199 0.1 1008565
21:00+1зсз5109699 0.1 1008516
28 февраля, вс
вс2800:00+1зсз51097100 0.1 1009528
03:000ссз5994100 0.3 1011494
06:00−4ссз588281 0.1 1012641
09:00−5ссз677591 0.1 1015666
12:00−4ссз587098 0.0 1016690
15:00−3ссз576782 0.0 1017761
18:00−5ссз577372 0.0 1019730
21:00−6с577883 0.0 1021649
1 марта, пн
пн100:00−7с4678100 0.0 1023641
03:00−8с4678100 0.0 1024607
06:00−8ссз468296 0.0 1026581
09:00−7ссз467896 0.0 1027563
12:00−5ссз456696 0.0 1028667
15:00−3сз456684 0.0 1028690
18:00−4сз377561 0.0 1027512
21:00−4з378273 0.0 1028255